Regional Weather Roundup
Issued by NWS

Home | Current Version | Previous Version | Text Only | Print | Product List | Glossary On
Versions: 1 2 3 4 5 6 7 8 9 10 11 12 13 14 15 16 17 18 19 20 21 22 23 24 25 26 27 28 29 30 31 32 33 34 35 36 37 38 39 40 41 42 43 44 45 46 47 48 49 50
000
ASUS46 KSEW 201410
RWRWA

WASHINGTON REGIONAL WEATHER ROUNDUP
NATIONAL WEATHER SERVICE SEATTLE WA
600 AM PST MON FEB 20 2017

NOTE:"FAIR" INDICATES FEW OR NO CLOUDS BELOW 12,000 FEET WITH NO
SIGNIFICANT WEATHER AND/OR OBSTRUCTIONS TO VISIBILITY.

WAZ507-509-555>559-201500-
SEATTLE, TACOMA, EVERETT, AND VICINITY

CITY           SKY/WX    TMP DP  RH WIND       PRES   REMARKS
EVERETT        CLOUDY    41  39  93 CALM      29.52F
BOEING FIELD   CLOUDY    42  42 100 CALM      29.52F
RENTON         CLOUDY    42  41  96 CALM      29.52S
SEATAC AIRPORT CLOUDY    41  39  93 CALM      29.51F
JBLM-MCCHORD   LGT RAIN  41  41 100 CALM      29.50S
PUYALLUP       DRIZZLE   39  39 100 CALM      29.50S
BREMERTON      CLOUDY    39  39 100 N5        29.54S
JBLM-FT LEWIS  MIX PCPN  40  40 100 CALM      29.50S
TACOMA NARROWS LGT RAIN  41  40  96 N6        29.51F
$$

WAZ001-503-506-510-514-515-201500-
NORTH INTERIOR

CITY           SKY/WX    TMP DP  RH WIND       PRES   REMARKS
BELLINGHAM     CLOUDY    41  39  93 N6        29.54F
FRIDAY HARBOR  CLOUDY    42  39  89 CALM      29.54F
EASTSOUND      MOCLDY    41  39  93 CALM      29.53F
PORT ANGELES   CLOUDY    39  38  96 SW5       29.53S
EDIZ HOOK      CLOUDY    43  39  86 S5        29.53S
PORT TOWNSEND  CLOUDY    36  36 100 CALM      29.54F
NAS WHIDBEY    CLOUDY    45  37  73 SE6       29.57F
ARLINGTON      CLOUDY    43  34  70 NE7       29.55F
BURLINGTON     CLOUDY    43  39  87 NE7       29.54F
$$

WAZ020-022-039-040-504-511-512-201500-
SOUTHWEST INTERIOR

CITY           SKY/WX    TMP DP  RH WIND       PRES   REMARKS
SHELTON        LGT RAIN  41  39  93 N3        29.49F
OLYMPIA        LGT RAIN  40  40 100 N5        29.50F FOG
CHEHALIS       LGT RAIN  41  41 100 N5        29.49F
KELSO          CLOUDY    43  42  97 CALM      29.47F
VANCOUVER      LGT RAIN  41  41 100 CALM      29.44F
SCAPPOOSE, OR  LGT RAIN  42  42 100 NW3       29.45F
PORTLAND, OR   LGT RAIN  41  39  93 E3        29.45F
$$

WAZ021-516-517-201500-
WASHINGTON COAST

CITY           SKY/WX    TMP DP  RH WIND       PRES   REMARKS
FORKS          CLOUDY    39  39 100 CALM      29.50F
HOQUIAM        LGT RAIN  42  42 100 NE6       29.48S
ASTORIA, OR    LGT RAIN  43  40  89 E6        29.44F
$$

WAZ019-023-024-040-567>569-201500-
CASCADE MOUNTAINS AND COLUMBIA GORGE

CITY           SKY/WX    TMP DP  RH WIND       PRES   REMARKS
STAMPEDE PASS  NOT AVBL
TROUTDALE, OR  LGT RAIN  43  39  86 E20       29.44F
THE DALLES, OR FOG       37  37 100 CALM      29.55S VSB 1/2
$$

WAZ026-027-041>044-520-521-201500-
EAST SLOPES

CITY           SKY/WX    TMP DP  RH WIND       PRES   REMARKS
OMAK           CLOUDY    34  31  88 NW5       29.61F
WENATCHEE      FLURRIES  34  32  92 CALM      29.58F
ELLENSBURG     FRZ RAIN  33  31  92 CALM      29.55S FOG
YAKIMA         LGT RAIN  36  34  92 NW5       29.56F
SUNNYSIDE ARPT LGT RAIN  36  34  92 CALM      29.55F
$$

WAZ028-034-035-201500-
COLUMBIA BASIN

CITY           SKY/WX    TMP DP  RH WIND       PRES   REMARKS
EPHRATA        LGT RAIN  34  29  82 N10       29.57F WCI  26
MOSES LAKE     CLOUDY    33  31  92 N7        29.58F
PASCO          CLOUDY    36  34  92 W5        29.58F
HERMISTON, OR  LGT RAIN  42  40  92 NE7       29.52F
$$

WAZ036>038-201500-
NORTHEAST WASHINGTON

CITY           SKY/WX    TMP DP  RH WIND       PRES   REMARKS
SPOKANE GEIGER CLOUDY    35  31  85 E5        29.60F
SPOKANE FELTS  CLOUDY    34  32  92 CALM      29.62F
FAIRCHILD AFB  MOCLDY    34  34 100 E6        29.59S
COEURDALENE,ID CLOUDY    31  31 100 NE9       29.63F
DEER PARK      CLOUDY    34  31  88 NE5       29.61F
$$

WAZ029>033-201500-
SOUTHEAST WASHINGTON

CITY           SKY/WX    TMP DP  RH WIND       PRES   REMARKS
PULLMAN        LGT RAIN  35  33  92 E12       29.61F WCI  27
LEWISTON, ID   LGT RAIN  39  36  89 VRB3      29.62F
WALLA WALLA    LGT RAIN  42  40  92 NE5       29.54F
PENDLETON, OR  CLOUDY    42  40  92 NE13      29.50F
$$



USA.gov is the U.S. government's official web portal to all federal, state and local government web resources and services.